Phoenix Deer Valley, AZ

8:14 PM MST on September 16, 2019 (GMT -0700)
Phoenix-Deer Valley Municipal

Weather History for KDVT - July, 2019

Change the Weather History Date:

Thursday, July 18, 2019

  Actual Average Record
Temperature  
Mean Temperature 93 °F -  
Max Temperature 105 °F 101 °F 113 °F (2000)
Min Temperature 81 °F 81 °F 75 °F (1999)
Cooling Degree Days 28    
Growing Degree Days 43 (Base 50)    
Moisture  
Dew Point 46 °F    
Average Humidity 22    
Maximum Humidity 42    
Minimum Humidity 11    
Precipitation  
Precipitation 0.00 in - - ()
Sea Level Pressure  
Sea Level Pressure 29.78 in    
Wind  
Wind Speed 7 mph (SW)    
Max Wind Speed 14 mph    
Max Gust Speed 22 mph    
Visibility 10 miles    
Events      
Averages and records for this station are not official NWS values.
T = Trace of Precipitation, MM = Missing Value Source: NWS Daily Summary

Daily Weather History Graph

Daily Weather History Graph

Search for Another Location

Airport or City:

Astronomy

Jul. 18, 2019 Rise Set
Actual Time 5:30 AM MST 7:38 PM MST
Civil Twilight 5:02 AM MST 8:06 PM MST
Nautical Twilight 4:28 AM MST 8:40 PM MST
Astronomical Twilight 3:51 AM MST 9:17 PM MST
Moon 9:09 PM MST (7/18) 7:01 AM MST (7/18)
Length of Visible Light 15h 03m
Length of Day
14h 07m
Waning Gibbous, 97% of the Moon is Illuminated
Jul 18
Waning Gibbous
Jul 24
Last Quarter
Jul 31
New
Aug 7
First Quarter
Aug 15
Full

Hourly Weather History & Observations

Time (MST) Temp. Heat Index Dew Point Humidity Pressure Visibility Wind Dir Wind Speed Gust Speed Precip Events Conditions
12:53 AM 90.0 °F 88.1 °F 55.9 °F 31% 29.82 in 10.0 mi West 9.2 mph - N/A   Clear
1:53 AM 88.0 °F 86.5 °F 55.9 °F 34% 29.82 in 10.0 mi West 5.8 mph - N/A   Clear
2:53 AM 84.9 °F 83.7 °F 55.9 °F 37% 29.83 in 10.0 mi Calm Calm - N/A   Clear
3:53 AM 84.0 °F 82.9 °F 55.0 °F 37% 29.83 in 10.0 mi Calm Calm - N/A   Clear
4:53 AM 81.0 °F 80.8 °F 55.9 °F 42% 29.84 in 10.0 mi ESE 3.5 mph - N/A   Clear
5:53 AM 81.0 °F 80.5 °F 54.0 °F 39% 29.85 in 10.0 mi East 3.5 mph - N/A   Clear
6:53 AM 86.0 °F - 48.9 °F 28% 29.86 in 10.0 mi SSW 5.8 mph - N/A   Clear
7:53 AM 88.0 °F - 48.9 °F 26% 29.87 in 10.0 mi WSW 8.1 mph - N/A   Clear
8:53 AM 90.0 °F - 48.9 °F 24% 29.87 in 10.0 mi SW 6.9 mph - N/A   Clear
9:53 AM 91.0 °F - 48.0 °F 23% 29.87 in 10.0 mi SSW 8.1 mph - N/A   Clear
10:53 AM 93.9 °F - 46.0 °F 19% 29.85 in 10.0 mi South 4.6 mph - N/A   Clear
11:53 AM 98.1 °F - 42.1 °F 15% 29.82 in 10.0 mi SSW 11.5 mph - N/A   Clear
12:53 PM 98.1 °F - 39.9 °F 13% 29.80 in 10.0 mi WSW 9.2 mph - N/A   Clear
1:53 PM 100.9 °F - 41.0 °F 13% 29.77 in 10.0 mi WSW 10.4 mph - N/A   Clear
2:53 PM 102.0 °F - 44.1 °F 14% 29.74 in 10.0 mi WNW 5.8 mph 17.3 mph N/A   Clear
3:53 PM 102.9 °F - 46.9 °F 15% 29.71 in 10.0 mi SW 11.5 mph - N/A   Clear
4:53 PM 104.0 °F - 43.0 °F 13% 29.68 in 10.0 mi West 12.7 mph 21.9 mph N/A   Clear
5:53 PM 105.1 °F - 41.0 °F 11% 29.68 in 10.0 mi West 12.7 mph - N/A   Clear
6:53 PM 102.9 °F - 39.9 °F 12% 29.67 in 10.0 mi SW 13.8 mph - N/A   Clear
7:53 PM 100.0 °F - 41.0 °F 13% 29.68 in 10.0 mi SW 10.4 mph - N/A   Clear
8:53 PM 98.1 °F - 41.0 °F 14% 29.70 in 10.0 mi SW 9.2 mph - N/A   Clear
9:53 PM 96.1 °F - 39.9 °F 14% 29.70 in 10.0 mi WSW 6.9 mph - N/A   Clear
10:53 PM 93.9 °F - 39.9 °F 15% 29.71 in 10.0 mi Calm Calm - N/A   Clear
11:53 PM 91.0 °F - 39.9 °F 17% 29.72 in 10.0 mi Calm Calm - N/A   Clear